QPF
0.00 0.00 0.00 0.00 0.00 0.00 0.00 0.01 0.00 0.00 0.00 0.00 0.00 0.00 0.00 0.00 0.00 0.00 0.00 0.00 0.00 0.00 0.00 0.00 0.00 0.00 0.00 0.01 0.03 0.06 0.09 0.11 0.07 0.03 0.02 0.02 0.01 0.00 0.00 0.00 0.00 0.00 0.00 0.00
0.00 0.00 0.00 0.00 0.00 0.00 0.00 0.00 0.00 0.00 0.00 0.00 0.00 0.00 0.00 0.00 0.00 0.00 0.00 0.00 0.00 0.00 0.00 0.00 0.00 0.00 0.00 0.01 0.03 0.06 0.10 0.11 0.10 0.04 0.00 0.00 0.02 0.03 0.02 0.01 0.00 0.00 0.00 0.00
0.00 0.00 0.00 0.00 0.00 0.00 0.00 0.00 0.00 0.00 0.00 0.00 0.00 0.00 0.00 0.00 0.00 0.00 0.00 0.00 0.00 0.00 0.00 0.00 0.00 0.00 0.00 0.00 0.01 0.06 0.11 0.12 0.13 0.07 0.02 0.01 0.01 0.02 0.02 0.01 0.00 0.00 0.00 0.00
0.00 0.00 0.00 0.00 0.00 0.00 0.00 0.00 0.00 0.00 0.00 0.00 0.00 0.00 0.00 0.00 0.00 0.00 0.00 0.00 0.00 0.00 0.00 0.00 0.00 0.00 0.00 0.00 0.00 0.01 0.04 0.08 0.11 0.08 0.03 0.02 0.01 0.00 0.00 0.01 0.01 0.00 0.00 0.00
0.00 0.00 0.00 0.00 0.00 0.00 0.00 0.00 0.00 0.00 0.00 0.00 0.00 0.00 0.00 0.00 0.00 0.00 0.00 0.00 0.00 0.00 0.00 0.00 0.00 0.00 0.00 0.00 0.00 0.00 0.02 0.05 0.07 0.05 0.04 0.05 0.03 0.01 0.00 0.01 0.01 0.01 0.00 0.00
0.00 0.00 0.00 0.00 0.00 0.00 0.00 0.00 0.00 0.00 0.00 0.00 0.00 0.00 0.00 0.00 0.00 0.00 0.00 0.00 0.00 0.00 0.00 0.00 0.00 0.00 0.00 0.00 0.00 0.00 0.01 0.03 0.05 0.04 0.04 0.04 0.03 0.02 0.02 0.02 0.02 0.01 0.01 0.01
0.00 0.00 0.00 0.00 0.00 0.00 0.00 0.00 0.00 0.00 0.00 0.00 0.00 0.00 0.00 0.00 0.00 0.00 0.00 0.00 0.00 0.00 0.00 0.00 0.00 0.00 0.00 0.00 0.00 0.01 0.00 0.00 0.00 0.02 0.05 0.04 0.03 0.03 0.03 0.04 0.03 0.03 0.02 0.01
0.00 0.00 0.00 0.00 0.00 0.00 0.00 0.00 0.00 0.00 0.00 0.00 0.00 0.00 0.00 0.00 0.00 0.00 0.00 0.00 0.00 0.00 0.00 0.00 0.00 0.00 0.00 0.00 0.00 0.01 0.01 0.00 0.00 0.01 0.02 0.04 0.04 0.05 0.05 0.05 0.04 0.04 0.02 0.02
0.00 0.00 0.00 0.00 0.00 0.01 0.00 0.00 0.00 0.00 0.00 0.00 0.00 0.00 0.00 0.00 0.00 0.00 0.00 0.00 0.00 0.00 0.00 0.00 0.00 0.00 0.00 0.00 0.00 0.02 0.02 0.00 0.00 0.01 0.03 0.05 0.06 0.05 0.04 0.03 0.02 0.02 0.01 0.01
0.00 0.00 0.00 0.00 0.00 0.00 0.00 0.00 0.00 0.00 0.00 0.00 0.00 0.00 0.00 0.00 0.00 0.00 0.00 0.00 0.00 0.00 0.00 0.00 0.00 0.00 0.00 0.00 0.01 0.01 0.00 0.00 0.00 0.00 0.02 0.02 0.02 0.02 0.02 0.01 0.00 0.00 0.00 0.00
0.00 0.00 0.00 0.00 0.00 0.00 0.00 0.00 0.00 0.00 0.00 0.00 0.00 0.00 0.00 0.00 0.00 0.00 0.01 0.00 0.00 0.00 0.00 0.00 0.00 0.00 0.00 0.00 0.02 0.02 0.01 0.00 0.00 0.01 0.02 0.01 0.00 0.00 0.00 0.00 0.00 0.00 0.00 0.00
0.00 0.00 0.00 0.00 0.00 0.00 0.00 0.00 0.00 0.00 0.00 0.00 0.00 0.00 0.00 0.00 0.00 0.00 0.00 0.00 0.00 0.00 0.00 0.00 0.00 0.00 0.00 0.01 0.01 0.01 0.02 0.02 0.01 0.01 0.01 0.00 0.00 0.00 0.00 0.00 0.00 0.00 0.00 0.00
0.00 0.00 0.00 0.00 0.00 0.00 0.00 0.00 0.00 0.00 0.00 0.00 0.00 0.00 0.00 0.00 0.00 0.00 0.00 0.00 0.00 0.00 0.00 0.00 0.00 0.00 0.00 0.02 0.01 0.03 0.04 0.01 0.00 0.00 0.00 0.00 0.00 0.00 0.00 0.00 0.00 0.00 0.00 0.00
0.00 0.00 0.00 0.00 0.00 0.00 0.00 0.00 0.00 0.00 0.00 0.00 0.00 0.00 0.00 0.00 0.00 0.00 0.00 0.00 0.00 0.00 0.00 0.00 0.00 0.00 0.01 0.02 0.02 0.01 0.00 0.00 0.00 0.00 0.00 0.00 0.00 0.00 0.00 0.00 0.00 0.00 0.00 0.00
0.00 0.00 0.00 0.00 0.00 0.00 0.00 0.00 0.00 0.00 0.00 0.00 0.00 0.00 0.00 0.00 0.00 0.00 0.00 0.00 0.00 0.00 0.00 0.00 0.00 0.00 0.00 0.00 0.00 0.00 0.00 0.00 0.00 0.00 0.00 0.00 0.00 0.00 0.00 0.00 0.00 0.00 0.00 0.00
0.00 0.00 0.00 0.00 0.00 0.00 0.00 0.00 0.00 0.00 0.00 0.00 0.00 0.00 0.00 0.00 0.00 0.00 0.00 0.00 0.00 0.00 0.00 0.00 0.00 0.00 0.00 0.00 0.00 0.00 0.00 0.00 0.00 0.00 0.00 0.00 0.00 0.00 0.00 0.00 0.00 0.00 0.00 0.00
0.00 0.00 0.00 0.00 0.00 0.00 0.00 0.00 0.00 0.00 0.00 0.00 0.00 0.00 0.00 0.00 0.00 0.00 0.00 0.00 0.00 0.00 0.00 0.00 0.00 0.00 0.00 0.00 0.00 0.00 0.00 0.00 0.00 0.00 0.00 0.00 0.00 0.00 0.00 0.00 0.00 0.00 0.00 0.00
0.00 0.00 0.00 0.00 0.00 0.00 0.00 0.00 0.00 0.00 0.00 0.00 0.00 0.00 0.00 0.00 0.00 0.00 0.00 0.00 0.00 0.00 0.00 0.00 0.00 0.00 0.00 0.00 0.00 0.00 0.00 0.00 0.00 0.00 0.00 0.00 0.00 0.00 0.00 0.00 0.00 0.00 0.00 0.00
0.00 0.00 0.00 0.00 0.00 0.00 0.00 0.00 0.00 0.00 0.00 0.00 0.00 0.00 0.00 0.00 0.00 0.00 0.00 0.00 0.00 0.00 0.00 0.00 0.00 0.00 0.00 0.00 0.00 0.00 0.00 0.00 0.00 0.00 0.00 0.00 0.00 0.00 0.00 0.00 0.00 0.00 0.00 0.00
0.00 0.00 0.00 0.00 0.00 0.00 0.00 0.00 0.00 0.00 0.00 0.00 0.00 0.00 0.00 0.00 0.00 0.00 0.00 0.00 0.00 0.00 0.00 0.00 0.00 0.00 0.00 0.00 0.00 0.00 0.00 0.00 0.00 0.00 0.00 0.00 0.00 0.00 0.00 0.00 0.00 0.00 0.00 0.00
0.00 0.00 0.00 0.00 0.00 0.00 0.00 0.00 0.00 0.00 0.00 0.00 0.00 0.00 0.00 0.00 0.00 0.00 0.00 0.00 0.00 0.00 0.00 0.00 0.00 0.00 0.00 0.00 0.00 0.00 0.00 0.00 0.00 0.00 0.00 0.00 0.00 0.00 0.00 0.00 0.00 0.00 0.00 0.00
0.00 0.00 0.00 0.00 0.00 0.00 0.00 0.00 0.00 0.00 0.00 0.00 0.00 0.00 0.00 0.00 0.00 0.00 0.00 0.00 0.00 0.00 0.00 0.00 0.00 0.00 0.00 0.00 0.00 0.00 0.00 0.00 0.00 0.00 0.00 0.00 0.00 0.00 0.00 0.00 0.00 0.00 0.00 0.00
0.00 0.00 0.00 0.00 0.00 0.00 0.00 0.00 0.00 0.00 0.00 0.00 0.00 0.00 0.00 0.00 0.00 0.00 0.00 0.00 0.00 0.00 0.00 0.00 0.00 0.00 0.00 0.00 0.00 0.00 0.00 0.00 0.00 0.00 0.00 0.00 0.00 0.00 0.00 0.00 0.00 0.00 0.00 0.00
0.00 0.00 0.00 0.00 0.00 0.00 0.00 0.00 0.00 0.00 0.00 0.00 0.00 0.00 0.00 0.00 0.00 0.00 0.00 0.00 0.00 0.00 0.00 0.00 0.00 0.00 0.00 0.00 0.00 0.00 0.00 0.00 0.00 0.00 0.00 0.00 0.00 0.00 0.00 0.00 0.00 0.00 0.00 0.00
0.00 0.00 0.00 0.00 0.00 0.00 0.00 0.00 0.00 0.00 0.00 0.00 0.00 0.00 0.00 0.00 0.00 0.00 0.00 0.00 0.00 0.00 0.00 0.00 0.00 0.00 0.00 0.00 0.00 0.00 0.00 0.00 0.00 0.00 0.00 0.00 0.00 0.00 0.00 0.00 0.00 0.00 0.00 0.00
0.00 0.00 0.00 0.00 0.00 0.00 0.00 0.00 0.00 0.00 0.00 0.00 0.00 0.00 0.00 0.00 0.00 0.00 0.00 0.00 0.00 0.00 0.00 0.00 0.00 0.00 0.00 0.00 0.00 0.00 0.00 0.00 0.00 0.00 0.00 0.00 0.00 0.00 0.00 0.00 0.00 0.00 0.00 0.00
MSLP
1015.64 1015.99 1015.88 1015.43 1015.29 1015.00 1014.58 1014.05 1012.93 1011.32 1011.20 1011.01 1010.14 1009.01 1008.67 1008.32 1008.07 1007.73 1007.34 1006.98 1006.89 1006.70 1005.88 1005.19 1004.71 1004.44 1003.86 1003.73 1003.78 1003.79 1004.00 1003.84 1004.66 1004.86 1006.62 1007.81 1008.57 1009.24 1009.81 1010.44 1010.54 1011.22 1011.84 1012.54
1016.34 1015.85 1015.23 1015.09 1014.90 1014.64 1014.35 1013.61 1011.99 1010.45 1010.32 1010.29 1009.19 1008.16 1007.67 1007.26 1006.79 1006.65 1006.45 1006.26 1006.26 1006.24 1005.75 1005.06 1004.59 1004.24 1003.79 1003.77 1003.13 1003.45 1003.49 1004.15 1003.97 1004.27 1006.16 1006.88 1007.91 1008.68 1009.06 1009.91 1010.27 1010.68 1011.18 1011.74
1016.51 1015.52 1015.17 1014.99 1014.46 1014.12 1013.51 1013.12 1011.84 1011.28 1010.21 1009.79 1008.90 1007.78 1006.34 1005.57 1005.47 1005.48 1005.26 1005.09 1005.45 1005.52 1005.47 1004.79 1004.54 1003.93 1003.68 1003.62 1002.81 1003.53 1003.62 1003.98 1004.19 1004.29 1005.26 1006.32 1007.51 1008.67 1009.10 1009.68 1010.18 1010.45 1010.64 1011.34
1016.22 1015.33 1015.25 1014.76 1014.47 1014.22 1013.03 1012.28 1012.00 1011.34 1010.97 1009.77 1009.26 1007.92 1006.27 1005.35 1005.19 1005.39 1005.12 1005.06 1004.77 1004.81 1004.73 1004.34 1004.21 1003.94 1003.26 1003.05 1002.47 1003.16 1003.74 1003.69 1003.80 1004.04 1003.64 1005.13 1006.15 1007.03 1007.56 1008.63 1009.26 1009.65 1010.03 1010.62
1016.58 1015.55 1015.09 1014.85 1014.46 1014.26 1013.27 1012.22 1011.94 1011.13 1010.68 1010.30 1008.68 1009.11 1006.63 1006.31 1006.84 1007.00 1006.50 1005.76 1005.12 1004.71 1004.32 1003.89 1003.66 1003.40 1002.73 1002.31 1002.11 1002.93 1003.43 1003.63 1002.86 1003.83 1004.13 1005.19 1006.02 1006.62 1006.76 1007.88 1008.71 1009.63 1009.84 1010.32
1016.76 1015.90 1015.59 1015.23 1014.35 1013.77 1013.17 1012.55 1010.65 1010.27 1010.35 1009.90 1008.37 1008.69 1008.04 1008.70 1009.55 1008.31 1007.53 1006.77 1006.01 1004.82 1004.14 1003.73 1003.22 1003.10 1002.53 1002.31 1003.28 1002.41 1003.20 1004.05 1003.73 1004.17 1003.97 1005.36 1005.74 1006.42 1006.62 1007.49 1008.47 1009.36 1009.78 1010.16
1017.58 1016.62 1016.02 1015.49 1014.64 1013.46 1013.46 1012.84 1011.93 1011.19 1010.51 1009.57 1008.58 1008.93 1009.30 1009.98 1009.79 1009.90 1008.37 1007.22 1006.21 1005.15 1004.20 1003.76 1003.49 1003.30 1003.03 1003.01 1003.01 1002.67 1003.76 1004.22 1004.56 1004.62 1005.21 1006.00 1006.36 1006.18 1006.96 1007.60 1008.09 1008.89 1009.55 1010.30
1019.89 1017.68 1016.86 1016.16 1016.08 1015.36 1014.54 1014.40 1013.99 1013.38 1011.43 1010.11 1008.93 1009.11 1009.15 1010.13 1009.97 1009.65 1008.07 1006.19 1005.49 1004.66 1003.92 1003.72 1003.65 1003.57 1003.34 1003.02 1003.24 1003.52 1004.11 1004.87 1005.33 1005.72 1005.74 1006.16 1005.95 1006.21 1006.46 1006.69 1007.99 1008.59 1009.01 1010.09
1021.10 1019.19 1017.34 1016.80 1016.26 1016.28 1015.18 1015.11 1015.11 1014.31 1012.30 1011.74 1009.98 1010.67 1009.97 1011.42 1010.04 1008.35 1006.52 1003.95 1004.39 1004.05 1003.83 1003.78 1004.14 1004.19 1004.04 1004.20 1003.93 1004.54 1004.91 1005.69 1006.35 1006.53 1007.01 1007.71 1008.01 1007.91 1008.23 1009.14 1009.47 1010.77 1011.13 1011.76
1021.75 1020.32 1017.97 1017.02 1016.83 1016.84 1017.05 1017.01 1015.70 1014.71 1013.78 1012.71 1011.98 1013.71 1015.74 1014.52 1013.57 1010.54 1006.94 1005.34 1005.30 1005.15 1005.05 1005.03 1005.19 1005.28 1005.31 1005.56 1005.63 1005.73 1006.43 1007.32 1008.32 1008.66 1008.71 1009.19 1011.47 1010.46 1010.51 1010.87 1011.75 1011.86 1012.25 1012.88
1021.92 1021.66 1018.79 1018.08 1018.65 1018.23 1017.77 1017.77 1017.37 1016.59 1015.41 1015.12 1015.06 1016.97 1018.47 1018.07 1016.84 1013.71 1009.25 1007.62 1006.72 1006.85 1006.71 1006.72 1007.03 1007.04 1007.15 1007.34 1007.58 1008.09 1008.39 1009.11 1009.87 1010.36 1010.16 1011.20 1012.87 1012.43 1012.44 1012.74 1013.65 1013.62 1014.06 1014.96
1022.25 1021.64 1020.43 1019.79 1019.51 1019.41 1019.44 1019.44 1018.85 1018.05 1017.06 1017.20 1017.41 1018.69 1019.28 1019.54 1018.06 1015.27 1011.75 1010.16 1009.17 1009.09 1008.86 1008.56 1008.90 1008.70 1009.06 1009.78 1009.85 1010.13 1010.75 1010.55 1011.55 1011.98 1012.14 1013.14 1014.31 1014.79 1015.01 1015.15 1015.48 1015.95 1016.02 1016.34
1022.77 1022.05 1021.77 1020.08 1019.90 1019.66 1019.62 1020.07 1019.50 1018.57 1018.89 1019.80 1020.12 1020.73 1021.21 1020.87 1019.08 1017.06 1015.03 1013.09 1012.06 1011.28 1010.72 1010.85 1010.72 1010.82 1011.43 1012.02 1012.13 1012.28 1012.63 1012.96 1013.83 1012.72 1014.22 1015.46 1016.19 1016.56 1017.30 1017.01 1017.16 1017.90 1017.81 1017.81
1023.00 1023.13 1023.22 1023.15 1022.21 1022.09 1021.26 1021.31 1021.52 1021.44 1021.79 1022.27 1022.97 1023.54 1022.61 1022.27 1021.45 1019.88 1017.89 1016.46 1015.01 1013.70 1013.27 1013.21 1013.09 1013.37 1013.81 1014.15 1014.35 1014.15 1014.56 1015.23 1014.78 1014.88 1016.61 1016.79 1017.37 1018.51 1019.25 1019.86 1020.27 1019.86 1019.76 1019.86
1023.69 1024.13 1023.81 1023.16 1022.67 1022.65 1022.90 1022.69 1022.79 1023.03 1023.80 1024.04 1024.39 1024.50 1025.11 1025.14 1024.53 1023.19 1021.52 1019.47 1017.15 1016.48 1015.89 1015.98 1016.03 1015.95 1016.25 1016.06 1016.00 1015.78 1016.01 1016.01 1016.55 1017.59 1018.09 1018.77 1019.94 1021.33 1021.34 1021.44 1021.81 1021.93 1021.58 1021.94
1024.47 1024.73 1024.56 1023.86 1023.17 1023.14 1022.98 1023.19 1023.65 1024.12 1024.80 1025.25 1025.33 1025.45 1026.28 1026.31 1025.74 1024.54 1023.31 1021.74 1020.24 1019.69 1019.27 1018.97 1018.49 1018.19 1017.94 1018.31 1017.91 1017.77 1017.85 1018.71 1019.59 1019.95 1020.58 1021.55 1022.35 1022.79 1022.83 1023.08 1023.26 1023.65 1023.11 1023.16
1025.30 1025.44 1025.41 1025.09 1023.92 1023.03 1023.22 1024.21 1024.96 1025.83 1026.52 1026.83 1026.96 1027.95 1027.43 1027.36 1027.04 1026.34 1025.48 1024.37 1023.65 1022.97 1022.41 1021.67 1020.68 1020.72 1020.69 1020.14 1020.19 1020.09 1020.86 1021.30 1021.33 1021.97 1022.71 1023.20 1022.84 1023.13 1023.80 1024.06 1024.20 1024.52 1024.68 1024.98
1025.91 1025.89 1026.39 1026.55 1024.86 1024.45 1025.55 1025.49 1025.74 1026.36 1027.01 1027.68 1028.32 1028.54 1028.23 1028.14 1028.06 1027.49 1027.01 1026.58 1026.25 1025.74 1024.56 1023.75 1023.64 1023.39 1023.10 1022.74 1022.60 1022.70 1022.95 1023.38 1023.63 1023.76 1024.24 1024.70 1024.78 1024.82 1025.44 1025.83 1026.21 1026.26 1026.42 1026.45
1026.27 1026.56 1027.26 1027.85 1027.82 1026.80 1025.92 1026.42 1026.97 1027.50 1028.27 1028.91 1029.09 1028.79 1028.40 1027.63 1027.69 1028.16 1029.24 1029.06 1028.68 1028.23 1027.64 1026.87 1026.21 1025.55 1025.05 1024.90 1024.96 1024.68 1024.86 1025.29 1025.35 1026.00 1026.69 1026.76 1026.89 1027.19 1027.46 1027.70 1027.97 1027.90 1027.96 1028.26
1026.19 1026.55 1027.55 1029.30 1029.07 1028.38 1027.54 1027.32 1027.49 1028.13 1029.46 1030.34 1030.68 1030.50 1029.94 1028.88 1028.76 1031.73 1031.27 1030.72 1030.02 1029.31 1028.76 1028.35 1027.77 1027.29 1026.78 1027.17 1026.91 1026.27 1026.70 1027.07 1027.44 1028.05 1028.43 1028.51 1028.85 1028.66 1029.01 1029.46 1029.34 1029.37 1029.60 1029.81
1027.67 1028.02 1029.51 1030.34 1030.11 1028.88 1028.26 1027.80 1027.69 1029.10 1032.08 1031.83 1032.14 1032.06 1031.94 1031.95 1033.15 1033.23 1032.68 1032.12 1031.57 1031.03 1030.38 1030.09 1029.59 1029.19 1029.29 1029.34 1028.85 1028.37 1028.94 1029.16 1029.71 1029.76 1029.93 1030.00 1030.22 1030.30 1030.66 1030.70 1030.81 1030.90 1030.99 1030.94
1029.16 1029.53 1030.25 1030.41 1030.24 1029.86 1028.89 1028.50 1029.17 1031.30 1031.73 1032.13 1032.58 1032.92 1033.11 1033.32 1033.27 1033.29 1033.08 1032.68 1032.26 1031.90 1031.64 1031.39 1031.06 1031.17 1031.28 1030.93 1030.62 1030.73 1031.08 1031.71 1031.48 1031.43 1031.55 1031.73 1031.76 1032.05 1032.23 1032.01 1032.10 1032.16 1032.17 1032.21
1028.47 1028.42 1028.99 1029.70 1029.92 1029.99 1030.15 1030.95 1031.06 1031.40 1031.71 1032.19 1032.42 1032.71 1033.10 1033.40 1033.73 1033.87 1033.82 1033.64 1033.55 1033.37 1033.11 1033.01 1032.85 1033.05 1033.18 1032.95 1032.56 1032.59 1033.30 1033.09 1033.01 1033.03 1033.40 1033.55 1033.58 1033.38 1033.19 1033.07 1033.04 1032.99 1033.15 1033.31
1027.63 1027.52 1028.11 1028.96 1029.23 1029.80 1030.10 1030.50 1030.73 1031.24 1031.49 1031.62 1031.91 1032.41 1032.94 1033.56 1034.08 1034.32 1034.39 1034.53 1034.58 1034.63 1034.62 1034.64 1034.50 1034.68 1035.00 1035.01 1034.78 1034.77 1034.76 1034.62 1034.37 1034.48 1034.72 1034.74 1034.59 1034.58 1034.41 1034.20 1034.07 1033.92 1033.88 1033.97
1026.51 1026.78 1026.97 1027.58 1028.10 1029.00 1029.25 1029.67 1030.10 1030.84 1031.35 1031.74 1032.23 1032.57 1033.08 1033.69 1034.33 1034.80 1035.17 1035.50 1035.71 1035.85 1035.96 1035.97 1036.13 1036.38 1036.59 1036.51 1036.34 1036.21 1035.98 1035.68 1035.45 1035.64 1035.79 1035.94 1036.02 1036.08 1035.96 1035.67 1035.04 1034.83 1034.73 1034.50
1024.76 1024.39 1024.95 1024.85 1024.67 1025.95 1026.70 1027.98 1029.29 1030.28 1031.04 1031.66 1032.20 1033.07 1033.71 1034.19 1034.81 1035.45 1036.11 1036.58 1036.85 1037.19 1037.41 1037.43 1037.64 1037.89 1038.13 1038.03 1037.96 1037.75 1037.52 1036.86 1036.72 1037.04 1037.46 1037.70 1037.61 1037.58 1037.48 1037.23 1036.88 1035.94 1035.48 1035.27
Thickness
5441 5426 5415 5420 5412 5412 5408 5402 5399 5408 5403 5391 5392 5401 5409 5418 5420 5421 5432 5446 5452 5477 5506 5525 5549 5569 5588 5599 5613 5622 5629 5633 5636 5636 5627 5624 5626 5629 5630 5629 5633 5631 5629 5626
5426 5419 5425 5421 5416 5411 5403 5396 5403 5416 5409 5398 5399 5402 5414 5419 5423 5425 5429 5440 5447 5467 5491 5515 5536 5557 5576 5591 5607 5616 5628 5628 5631 5637 5629 5628 5624 5624 5628 5626 5629 5629 5628 5626
5416 5423 5422 5414 5406 5401 5399 5391 5401 5396 5403 5397 5395 5402 5414 5424 5427 5433 5439 5447 5449 5461 5481 5507 5526 5547 5565 5581 5603 5603 5616 5621 5625 5633 5631 5630 5624 5620 5620 5622 5625 5626 5624 5621
5412 5420 5413 5406 5401 5397 5394 5407 5398 5394 5388 5389 5394 5398 5426 5422 5422 5424 5432 5439 5449 5458 5478 5498 5517 5535 5558 5578 5596 5601 5605 5614 5626 5633 5632 5628 5629 5628 5631 5626 5625 5626 5623 5622
5407 5409 5404 5389 5401 5394 5389 5399 5388 5388 5387 5386 5407 5387 5410 5416 5408 5403 5409 5418 5427 5444 5467 5490 5510 5530 5557 5576 5592 5599 5604 5614 5624 5631 5633 5628 5627 5629 5634 5628 5627 5621 5622 5621
5402 5406 5398 5392 5399 5392 5388 5379 5399 5396 5389 5377 5416 5404 5413 5390 5373 5383 5393 5399 5416 5440 5457 5479 5506 5527 5553 5571 5577 5601 5603 5603 5610 5615 5612 5622 5615 5624 5631 5627 5622 5620 5617 5615
5388 5395 5398 5391 5382 5402 5388 5375 5362 5352 5359 5379 5415 5402 5391 5370 5374 5361 5375 5387 5404 5431 5455 5475 5498 5520 5541 5560 5576 5595 5594 5597 5602 5608 5610 5609 5614 5621 5621 5620 5620 5617 5614 5609
5341 5359 5377 5378 5365 5367 5371 5366 5369 5350 5391 5394 5416 5406 5410 5372 5371 5360 5378 5398 5410 5432 5459 5480 5497 5517 5537 5557 5571 5583 5588 5588 5594 5601 5606 5604 5611 5609 5612 5614 5613 5613 5609 5602
5349 5352 5387 5381 5376 5367 5362 5356 5351 5344 5371 5367 5405 5378 5400 5358 5358 5365 5382 5429 5423 5440 5459 5481 5496 5510 5526 5541 5560 5568 5576 5582 5587 5594 5589 5585 5585 5594 5596 5590 5590 5585 5585 5581
5356 5352 5388 5392 5379 5373 5356 5348 5334 5347 5352 5361 5397 5347 5307 5318 5320 5340 5407 5416 5420 5428 5441 5460 5483 5505 5520 5530 5545 5558 5561 5565 5562 5567 5573 5570 5557 5567 5567 5570 5564 5564 5564 5560
5362 5347 5379 5379 5348 5348 5346 5333 5331 5330 5346 5356 5368 5323 5297 5291 5294 5318 5395 5409 5418 5423 5439 5457 5474 5491 5505 5517 5529 5536 5542 5544 5546 5552 5556 5553 5541 5543 5548 5550 5546 5547 5545 5538
5368 5359 5355 5349 5354 5362 5348 5322 5320 5317 5347 5328 5340 5328 5297 5287 5291 5320 5372 5389 5397 5405 5422 5445 5461 5480 5492 5499 5510 5518 5521 5530 5529 5535 5537 5530 5523 5520 5519 5521 5524 5520 5520 5521
5369 5372 5354 5376 5380 5374 5352 5331 5322 5336 5322 5305 5306 5304 5291 5285 5294 5310 5341 5366 5380 5396 5416 5435 5454 5470 5479 5487 5495 5502 5508 5512 5510 5526 5512 5509 5506 5503 5498 5503 5505 5497 5502 5504
5375 5371 5372 5360 5355 5348 5348 5333 5322 5315 5284 5294 5293 5275 5287 5283 5286 5300 5323 5345 5366 5388 5408 5428 5445 5458 5469 5474 5481 5489 5493 5495 5502 5505 5493 5494 5493 5484 5479 5476 5474 5477 5479 5478
5383 5357 5359 5355 5354 5361 5351 5337 5324 5308 5295 5296 5292 5287 5282 5275 5277 5289 5308 5335 5364 5382 5402 5418 5432 5447 5455 5464 5471 5479 5484 5488 5490 5485 5477 5473 5470 5460 5459 5459 5456 5455 5458 5453
5384 5365 5356 5363 5362 5370 5376 5356 5340 5320 5305 5304 5307 5308 5293 5285 5287 5298 5312 5331 5355 5374 5391 5407 5423 5435 5445 5447 5456 5465 5470 5466 5464 5461 5457 5453 5447 5444 5442 5439 5439 5434 5437 5436
5389 5398 5384 5378 5371 5381 5379 5355 5341 5325 5310 5307 5300 5291 5298 5297 5300 5303 5314 5331 5345 5361 5379 5396 5415 5417 5424 5435 5440 5445 5443 5445 5449 5447 5443 5439 5439 5437 5432 5429 5427 5422 5419 5415
5404 5408 5376 5365 5371 5393 5379 5362 5353 5346 5331 5315 5309 5306 5311 5317 5316 5320 5327 5335 5342 5355 5374 5386 5391 5399 5407 5415 5421 5426 5429 5428 5429 5430 5427 5424 5422 5420 5414 5410 5404 5402 5397 5393
5407 5403 5372 5387 5347 5403 5391 5367 5353 5351 5352 5330 5325 5324 5327 5347 5353 5341 5331 5336 5342 5349 5361 5373 5382 5390 5397 5403 5407 5413 5414 5414 5416 5410 5405 5404 5402 5398 5393 5389 5384 5381 5377 5370
5433 5415 5399 5347 5367 5396 5387 5371 5368 5360 5377 5337 5333 5332 5333 5361 5366 5326 5328 5335 5344 5354 5361 5367 5375 5383 5390 5389 5394 5402 5400 5398 5395 5392 5388 5386 5381 5380 5374 5369 5367 5363 5358 5353
5395 5392 5377 5347 5356 5394 5375 5380 5385 5395 5376 5333 5329 5334 5335 5334 5318 5319 5329 5336 5343 5349 5357 5360 5365 5370 5373 5374 5379 5384 5379 5378 5374 5372 5370 5368 5365 5362 5357 5354 5349 5346 5341 5338
5414 5397 5366 5340 5368 5407 5377 5398 5406 5363 5337 5331 5329 5332 5332 5325 5325 5327 5332 5338 5343 5347 5351 5355 5358 5359 5359 5364 5366 5365 5362 5357 5358 5357 5355 5352 5349 5344 5340 5338 5334 5329 5325 5320
5424 5418 5404 5400 5398 5379 5366 5363 5362 5352 5351 5346 5351 5349 5348 5344 5339 5338 5337 5339 5340 5342 5345 5347 5349 5348 5347 5349 5353 5352 5345 5346 5346 5344 5339 5336 5333 5332 5330 5327 5323 5319 5312 5305
5431 5430 5419 5411 5404 5385 5375 5377 5372 5368 5372 5373 5368 5362 5357 5349 5343 5340 5340 5339 5338 5338 5338 5339 5341 5339 5336 5336 5338 5337 5337 5336 5335 5332 5329 5327 5325 5322 5319 5315 5310 5306 5302 5295
5443 5435 5431 5423 5414 5399 5397 5396 5390 5381 5377 5374 5368 5365 5359 5352 5344 5340 5338 5336 5334 5333 5332 5333 5332 5329 5327 5328 5329 5329 5330 5331 5331 5327 5324 5319 5315 5311 5307 5304 5302 5296 5290 5284
5450 5455 5451 5455 5454 5444 5438 5415 5403 5393 5385 5378 5371 5362 5357 5353 5348 5342 5336 5332 5330 5328 5327 5328 5326 5324 5322 5322 5323 5323 5323 5325 5324 5319 5312 5306 5303 5298 5294 5289 5286 5283 5277 5270